| time (UTC) | temp F | wind direction | speed MPH | gust MPH | rain 1hr in | rain 24hr in | rain mn in | humidity % | barometer mb |
| 20260906073026 | 61 | 355 | 0.0 | 0.0 | 0.00 | 0.05 | 0.00 | 95 | 1014.2 |
| 20260906071505 | 62 | 355 | 0.0 | 0.0 | 0.00 | 0.05 | 0.00 | 95 | 1014.1 |
| 20260906070012 | 62 | 355 | 0.0 | 0.0 | 0.00 | 0.05 | 0.00 | 95 | 1014.1 |
| 20260906064546 | 62 | 355 | 0.0 | 0.0 | 0.00 | 0.05 | 0.00 | 95 | 1014.2 |
| 20260906063047 | 62 | 355 | 0.0 | 1.0 | 0.00 | 0.05 | 0.00 | 95 | 1014.3 |
| 20260906061527 | 62 | 355 | 0.0 | 0.0 | 0.00 | 0.05 | 0.00 | 95 | 1014.4 |
| 20260906060027 | 62 | 355 | 0.0 | 0.0 | 0.00 | 0.05 | 0.00 | 95 | 1014.4 |
| 20260906054508 | 62 | 355 | 0.0 | 1.0 | 0.00 | 0.05 | 0.00 | 95 | 1014.4 |
| 20260906053007 | 62 | 355 | 0.0 | 0.0 | 0.00 | 0.05 | 0.00 | 94 | 1014.3 |
| 20260906051548 | 63 | 355 | 0.0 | 1.0 | 0.00 | 0.05 | 0.00 | 94 | 1014.3 |
| 20260906050051 | 63 | 355 | 0.0 | 0.0 | 0.00 | 0.05 | 0.00 | 94 | 1014.4 |
| 20260906044530 | 63 | 355 | 0.0 | 0.0 | 0.00 | 0.05 | 0.00 | 94 | 1014.5 |
| 20260906043028 | 63 | 355 | 0.0 | 0.0 | 0.01 | 0.05 | 0.00 | 94 | 1014.4 |
| 20260906041508 | 63 | 94 | 0.0 | 1.0 | 0.02 | 0.05 | 0.00 | 94 | 1014.3 |
| 20260906040005 | 64 | 78 | 0.0 | 2.0 | 0.02 | 0.05 | 0.05 | 94 | 1014.2 |
| 20260906034554 | 65 | 194 | 0.0 | 0.0 | 0.02 | 0.05 | 0.05 | 95 | 1013.9 |
| 20260906033054 | 65 | 194 | 0.0 | 0.0 | 0.01 | 0.04 | 0.04 | 95 | 1013.8 |
| 20260906031609 | 64 | 194 | 0.0 | 0.0 | 0.00 | 0.03 | 0.03 | 95 | 1013.7 |
| 20260906030051 | 64 | 194 | 0.0 | 0.0 | 0.00 | 0.03 | 0.03 | 94 | 1013.7 |
| 20260906024600 | 65 | 194 | 0.0 | 0.0 | 0.00 | 0.03 | 0.03 | 94 | 1013.9 |
| 20260906023058 | 65 | 194 | 0.0 | 0.0 | 0.02 | 0.03 | 0.03 | 94 | 1013.8 |
| 20260906021548 | 65 | 194 | 0.0 | 0.0 | 0.02 | 0.03 | 0.03 | 93 | 1013.8 |
| 20260906020048 | 65 | 194 | 0.0 | 0.0 | 0.03 | 0.03 | 0.03 | 93 | 1013.7 |
| 20260906014529 | 65 | 194 | 0.0 | 0.0 | 0.03 | 0.03 | 0.03 | 92 | 1013.7 |
| 20260906013028 | 65 | 194 | 0.0 | 0.0 | 0.01 | 0.01 | 0.01 | 92 | 1013.6 |
| 20260906011509 | 66 | 194 | 0.0 | 0.0 | 0.01 | 0.01 | 0.01 | 90 | 1013.4 |
| 20260906010017 | 66 | 122 | 0.0 | 0.0 | 0.00 | 0.00 | 0.00 | 90 | 1013.3 |
| 20260906004549 | 65 | 121 | 0.0 | 1.0 | 0.00 | 0.00 | 0.00 | 90 | 1013.2 |
| 20260906003048 | 65 | 42 | 0.0 | 0.0 | 0.00 | 0.00 | 0.00 | 90 | 1013.1 |
| 20260906001534 | 66 | 41 | 0.0 | 1.0 | 0.00 | 0.00 | 0.00 | 88 | 1012.7 |
| 20260906000027 | 67 | 96 | 0.0 | 1.0 | 0.00 | 0.00 | 0.00 | 87 | 1012.7 |
| 20260905234507 | 67 | 99 | 0.0 | 1.0 | 0.00 | 0.00 | 0.00 | 85 | 1012.3 |
| 20260905233006 | 68 | 102 | 0.0 | 1.0 | 0.00 | 0.00 | 0.00 | 84 | 1012.4 |
| 20260905231549 | 68 | 21 | 0.0 | 0.0 | 0.00 | 0.00 | 0.00 | 84 | 1012.2 |
| 20260905230048 | 69 | 21 | 0.0 | 0.0 | 0.00 | 0.00 | 0.00 | 83 | 1012.2 |
| 20260905224531 | 70 | 21 | 0.0 | 0.0 | 0.00 | 0.00 | 0.00 | 81 | 1012.1 |
| 20260905223031 | 71 | 171 | 0.0 | 0.0 | 0.00 | 0.00 | 0.00 | 79 | 1012.2 |
| 20260905221510 | 72 | 113 | 0.0 | 1.0 | 0.00 | 0.00 | 0.00 | 76 | 1011.9 |
| 20260905220009 | 73 | 303 | 0.0 | 2.0 | 0.00 | 0.00 | 0.00 | 73 | 1011.8 |
| 20260905214558 | 73 | 347 | 0.0 | 1.0 | 0.00 | 0.00 | 0.00 | 74 | 1011.7 |
| 20260905213100 | 73 | 255 | 0.0 | 0.0 | 0.00 | 0.00 | 0.00 | 74 | 1011.5 |
| 20260905211607 | 73 | 260 | 0.0 | 1.0 | 0.00 | 0.00 | 0.00 | 75 | 1011.2 |
| 20260905204600 | 75 | 120 | 0.0 | 4.0 | 0.00 | 0.00 | 0.00 | 70 | 1010.9 |
| 20260905203059 | 76 | 336 | 0.0 | 1.0 | 0.00 | 0.00 | 0.00 | 70 | 1010.8 |
| 20260905201557 | 77 | 276 | 1.0 | 3.0 | 0.00 | 0.00 | 0.00 | 67 | 1010.9 |
| 20260905200110 | 75 | 285 | 0.0 | 1.0 | 0.00 | 0.00 | 0.00 | 72 | 1010.8 |
| 20260905194535 | 75 | 207 | 0.0 | 2.0 | 0.00 | 0.00 | 0.00 | 69 | 1010.9 |
| 20260905193037 | 76 | 124 | 0.0 | 4.0 | 0.00 | 0.00 | 0.00 | 67 | 1010.9 |
| 20260905191516 | 76 | 264 | 0.0 | 5.0 | 0.00 | 0.00 | 0.00 | 71 | 1011.0 |
| 20260905190016 | 77 | 156 | 0.0 | 5.0 | 0.00 | 0.00 | 0.00 | 66 | 1010.9 |
| 20260905184504 | 77 | 178 | 2.0 | 6.0 | 0.00 | 0.00 | 0.00 | 66 | 1010.9 |
| 20260905183004 | 76 | 211 | 0.0 | 4.0 | 0.00 | 0.00 | 0.00 | 65 | 1010.9 |
| 20260905181502 | 76 | 264 | 0.0 | 3.0 | 0.00 | 0.00 | 0.00 | 63 | 1010.9 |
| 20260905180002 | 77 | 288 | 1.0 | 6.0 | 0.00 | 0.00 | 0.00 | 62 | 1011.1 |
| 20260905174603 | 79 | 84 | 1.0 | 7.0 | 0.00 | 0.00 | 0.00 | 62 | 1011.2 |
| 20260905173104 | 78 | 71 | 0.0 | 4.0 | 0.00 | 0.00 | 0.00 | 63 | 1011.0 |
| 20260905171558 | 78 | 293 | 1.0 | 6.0 | 0.00 | 0.00 | 0.00 | 64 | 1011.3 |
| 20260905170059 | 78 | 340 | 0.0 | 7.0 | 0.00 | 0.00 | 0.00 | 69 | 1011.2 |
| 20260905164539 | 77 | 140 | 2.0 | 6.0 | 0.00 | 0.00 | 0.00 | 66 | 1011.2 |
| 20260905163039 | 76 | 145 | 1.0 | 6.0 | 0.00 | 0.00 | 0.00 | 68 | 1011.3 |
| 20260905161519 | 78 | 89 | 2.0 | 6.0 | 0.00 | 0.00 | 0.00 | 65 | 1011.3 |
| 20260905160019 | 77 | 195 | 0.0 | 7.0 | 0.00 | 0.00 | 0.00 | 66 | 1011.2 |
| 20260905154618 | 77 | 65 | 1.0 | 7.0 | 0.00 | 0.00 | 0.00 | 66 | 1011.4 |
| 20260905153056 | 76 | 209 | 1.0 | 7.0 | 0.00 | 0.00 | 0.00 | 68 | 1011.4 |
| 20260905151557 | 76 | 72 | 1.0 | 8.0 | 0.00 | 0.00 | 0.00 | 68 | 1011.3 |
| 20260905150037 | 75 | 231 | 2.0 | 7.0 | 0.00 | 0.00 | 0.00 | 66 | 1011.4 |
| 20260905144537 | 75 | 243 | 1.0 | 6.0 | 0.00 | 0.00 | 0.00 | 70 | 1011.3 |
| 20260905143124 | 75 | 129 | 0.0 | 4.0 | 0.00 | 0.00 | 0.00 | 71 | 1011.2 |
| 20260905141527 | 74 | 224 | 0.0 | 6.0 | 0.00 | 0.00 | 0.00 | 73 | 1011.2 |
| 20260905140018 | 73 | 236 | 1.0 | 6.0 | 0.00 | 0.00 | 0.00 | 74 | 1011.3 |
| 20260905134515 | 72 | 245 | 1.0 | 5.0 | 0.00 | 0.00 | 0.00 | 76 | 1011.4 |
| 20260905133011 | 70 | 62 | 0.0 | 4.0 | 0.00 | 0.00 | 0.00 | 80 | 1011.4 |
| 20260905131515 | 69 | 49 | 0.0 | 3.0 | 0.00 | 0.00 | 0.00 | 81 | 1011.5 |
| 20260905130010 | 70 | 140 | 0.0 | 5.0 | 0.00 | 0.00 | 0.00 | 81 | 1011.6 |
| 20260905124511 | 69 | 327 | 0.0 | 3.0 | 0.00 | 0.00 | 0.00 | 82 | 1011.7 |
| 20260905123048 | 68 | 307 | 0.0 | 2.0 | 0.00 | 0.00 | 0.00 | 82 | 1011.9 |
| 20260905121544 | 67 | 281 | 0.0 | 2.0 | 0.00 | 0.00 | 0.00 | 86 | 1011.8 |
| 20260905120025 | 65 | 167 | 0.0 | 2.0 | 0.00 | 0.00 | 0.00 | 92 | 1011.8 |
| 20260905114520 | 62 | 319 | 0.0 | 1.0 | 0.00 | 0.00 | 0.00 | 97 | 1011.5 |
| 20260905113059 | 60 | 294 | 0.0 | 1.0 | 0.00 | 0.00 | 0.00 | 97 | 1011.4 |
| 20260905111558 | 58 | 307 | 0.0 | 0.0 | 0.00 | 0.00 | 0.00 | 97 | 1011.2 |
| 20260905110050 | 58 | 307 | 0.0 | 0.0 | 0.00 | 0.00 | 0.00 | 96 | 1011.2 |
| 20260905104540 | 57 | 307 | 0.0 | 0.0 | 0.00 | 0.00 | 0.00 | 96 | 1011.1 |
| 20260905103023 | 58 | 307 | 0.0 | 0.0 | 0.00 | 0.00 | 0.00 | 96 | 1011.0 |
| 20260905101526 | 57 | 307 | 0.0 | 0.0 | 0.00 | 0.00 | 0.00 | 96 | 1010.8 |
| 20260905100004 | 58 | 307 | 0.0 | 0.0 | 0.00 | 0.01 | 0.00 | 96 | 1010.8 |
| 20260905094605 | 57 | 307 | 0.0 | 0.0 | 0.00 | 0.01 | 0.00 | 96 | 1010.7 |
| 20260905093052 | 58 | 307 | 0.0 | 0.0 | 0.00 | 0.01 | 0.00 | 96 | 1010.6 |
| 20260905091602 | 58 | 307 | 0.0 | 0.0 | 0.00 | 0.01 | 0.00 | 96 | 1010.5 |
| 20260905090051 | 58 | 307 | 0.0 | 0.0 | 0.00 | 0.30 | 0.00 | 96 | 1010.5 |
| 20260905084549 | 58 | 307 | 0.0 | 0.0 | 0.00 | 0.30 | 0.00 | 96 | 1010.6 |
| 20260905083049 | 58 | 307 | 0.0 | 0.0 | 0.00 | 0.30 | 0.00 | 96 | 1010.7 |
| 20260905081548 | 58 | 307 | 0.0 | 0.0 | 0.00 | 0.30 | 0.00 | 96 | 1010.6 |
| 20260905080047 | 58 | 307 | 0.0 | 0.0 | 0.00 | 0.30 | 0.00 | 96 | 1010.5 |
| 20260905074547 | 58 | 308 | 0.0 | 3.0 | 0.00 | 0.30 | 0.00 | 96 | 1010.5 |